CZ-6A DEB, 56676

Orbit data source: Space-Track

CZ-6A DEB, 56676 is space debris in SSO originally from a launch on Fri, 11 Nov 2022 UTC launched from the Taiyaun Space Center, China (TSC). Debris objects in space refer to the collection of defunct objects orbiting the Earth. Examples of debris include non-operational satellites, rocket bodies, and fragments generated from explosions, collisions, or faulty payload assembly.

Loading next visibility...
Identifier
56676, 2022-151AHC
Orbit
SSO
Country
Flag of CNCN / PRC
Related business
Manufacturer
SAST
Mission
Spacecraft
Bus & Motor
Unknown
Mass
Unknown
Launch date (UTC)
2022-11-11 (4 years ago)
Launch vehicle
Unknown
Launch site
Taiyaun Space Center, China (TSC)
Object type
Payload
Rocket body
Debris
Shape & HBR
Unknown shape, 0.1 m
Radar Cross Section
Small (<0.1 m²)

Expand to show TLE details & history
Last TLE update: 2 days ago

TLE from 2 days ago
0 CZ-6A DEB
1 56676U 22151AHC 26235.43789869  .00000193  00000-0  13308-3 0  9994
2 56676  98.8586 237.0570 0045291 149.1044 211.2806 14.09850025171300
Epoch: 2026-08-23T10:30Z
TLE epoch observation values (Epoch: 2026-08-23T10:30:34.446Z)
Latitude
0.00001°
Longitude
107.67952°
Altitude
890.843 km
Speed
7.392 km/s
True Right ascension
15h 48m 13s
True Declination
0° 00' 00"
Sunlit
Object was in daylight at epoch
Visualization orbit readout
Latitude
Unknown
Longitude
Unknown
Altitude
Unknown
Speed
Unknown
Apparent Right ascension
Unknown
Apparent Declination
Unknown
Sunlit
N/A
Visualization observer readout
Local Sidereal Time
15:06:46
Azimuth
Unknown
Elevation
Unknown
Doppler factor
Unknown
Orbital elements
Apogee altitude
889.833 km
Perigee altitude
824.295 km
Semi-major axis
7,235.201 km
Eccentricity
0.00453
Inclination
98.8586°
RAAN
237.057°
Arg. of periapsis
149.1044°
True anomaly
211.01242°
Mean anomaly
211.2806°
Eccentric anomaly
211.14638°
Mean motion
3.52669 °/min
Orbital period
102.08 mins
BSTAR
0.00013308
Loading maneuver chart data...
Computing Atmospheric mass density...
Loading historical data...
Loading historical data...
Loading historical data...
Loading historical data...
Loading historical data...
Loading historical data...
Loading historical data...

Documentation

Showing up to 5 results
|